Temp
18 18 18 18 17 17 17 17 17 17 17 17 17 17 17 16 16 16 16 16 16 16 16 16 15 15 15 15 14 14 14 13 13 13 13 13 12 12 12 12 12 13 12 12 12 12 12 11 11 11 11 11 11 11 11 11 11 11 11 12 12 11 12 12 9 8 8 9 9 9 9 9 9 9 9 9 9 9 9 9 9 9 9 9 8
18 18 18 17 17 17 17 17 17 17 17 17 17 17 16 16 16 16 16 16 16 16 15 15 15 15 15 14 14 14 13 13 13 13 13 12 12 12 12 12 12 12 12 12 11 11 11 11 11 11 11 11 11 11 11 11 11 11 10 11 11 11 11 11 10 8 9 9 9 9 9 9 9 9 9 9 9 9 9 9 9 9 9 9 8
18 18 18 17 17 17 17 17 17 17 17 17 17 16 16 16 16 16 16 16 16 16 15 15 15 15 14 14 14 13 13 13 13 12 12 12 12 12 12 12 12 12 12 12 11 11 11 11 11 11 11 11 11 11 11 11 10 10 10 10 11 11 11 11 10 9 8 9 9 9 9 9 9 9 9 9 9 9 9 9 9 9 9 9 9
18 18 18 17 17 17 17 17 17 17 17 17 16 16 16 16 16 16 16 16 16 15 15 15 15 15 14 14 13 13 13 13 12 12 12 12 12 12 11 11 12 12 12 11 11 11 11 11 10 10 11 11 10 10 10 10 10 10 10 10 10 10 10 10 10 9 8 8 8 8 9 9 9 9 9 9 9 9 9 9 9 9 9 9 9
18 18 18 17 17 17 17 17 17 17 17 16 16 16 16 16 16 16 16 16 16 15 15 15 15 14 14 14 13 13 13 12 12 12 12 12 12 12 11 11 11 12 11 11 11 11 11 11 10 10 10 10 10 10 10 10 10 10 10 10 10 10 9 9 9 9 8 8 8 8 8 9 9 9 8 9 9 9 9 9 9 9 9 9 9
18 18 18 17 17 17 16 16 16 17 17 16 16 16 16 16 15 16 16 16 15 15 15 15 15 14 14 14 13 13 13 12 12 12 12 11 12 11 11 11 11 11 11 11 11 11 11 11 10 10 10 10 10 10 10 10 10 10 10 10 9 9 9 8 8 8 8 8 8 8 8 8 9 9 9 9 8 8 8 9 9 9 8 8 9
18 18 18 17 17 17 16 16 16 16 16 16 16 16 15 15 15 15 16 16 15 15 15 15 14 14 14 13 13 13 12 12 12 12 11 11 11 11 11 11 11 11 11 11 10 10 10 10 10 10 10 10 10 10 10 10 9 9 10 9 9 9 9 8 8 8 8 8 8 8 8 8 8 9 9 9 9 8 8 7 8 8 8 8 8
18 18 17 17 17 17 17 16 16 16 16 16 16 16 15 15 15 16 16 15 15 15 15 15 14 14 14 13 13 13 12 12 12 12 11 11 11 11 11 11 11 10 10 10 10 10 10 10 10 10 10 10 10 10 10 10 9 9 9 9 9 9 8 8 8 8 8 8 8 8 8 8 8 8 9 9 8 8 7 6 7 8 8 8 8
18 18 17 17 17 17 17 16 16 16 16 16 16 15 15 15 15 15 15 15 15 15 15 15 14 14 13 13 13 12 12 12 12 11 11 11 11 11 11 11 11 10 10 10 10 10 10 10 10 10 10 10 10 10 9 9 9 10 9 9 9 9 9 8 8 8 8 8 8 8 8 9 8 8 8 8 8 7 8 7 7 8 8 8 9
18 17 17 17 17 17 16 16 16 16 15 15 15 15 15 15 15 15 15 15 15 15 15 14 14 14 13 13 12 12 12 12 12 12 11 11 11 11 11 11 10 10 10 10 10 10 10 10 9 9 9 9 10 10 9 9 9 9 9 9 9 9 9 8 8 8 8 8 8 8 8 8 8 8 8 8 8 8 8 8 8 8 7 7 8
18 17 17 17 17 17 16 16 16 16 15 15 15 15 15 14 14 14 15 14 15 15 14 14 14 14 13 13 12 12 12 12 12 12 11 11 11 11 11 11 10 10 10 10 10 10 9 9 9 9 9 9 9 10 9 9 9 9 9 9 9 9 9 9 9 9 9 8 8 8 8 8 8 8 8 8 8 8 8 8 8 7 7 5 5
18 17 17 17 17 17 16 16 15 15 15 15 15 15 14 14 14 14 14 14 14 14 14 14 14 13 13 13 12 12 12 12 12 12 11 11 11 11 11 11 11 10 10 10 10 10 9 9 9 9 9 9 9 9 9 9 9 9 9 9 8 8 9 9 9 9 9 9 8 8 8 8 8 9 8 8 8 8 9 9 8 7 7 6 5
18 17 17 17 17 16 16 16 15 15 15 15 15 15 14 14 14 14 14 14 14 13 13 13 13 13 13 13 12 12 12 12 12 11 11 11 11 11 11 11 11 10 9 9 10 10 9 9 9 9 9 9 9 9 9 9 9 9 9 9 8 8 9 9 9 9 9 9 9 8 8 8 9 9 9 8 8 8 9 9 8 8 7 7 7
17 17 17 17 17 16 16 15 15 15 15 15 15 14 14 14 14 14 14 14 13 12 13 13 13 13 13 13 13 12 12 12 12 11 11 11 11 11 11 11 11 10 10 10 10 10 9 9 9 9 9 9 9 9 9 9 9 9 9 9 8 8 9 9 9 9 9 9 9 9 8 9 9 9 9 9 9 9 9 8 8 8 8 8 8
17 17 17 17 17 16 16 15 15 15 15 15 14 14 14 14 14 14 14 14 13 13 13 13 13 13 13 13 13 12 12 12 12 11 11 11 11 11 11 11 10 10 10 10 10 10 10 10 9 9 9 9 9 9 9 9 9 9 9 9 8 8 8 9 9 9 9 9 9 9 9 9 9 9 9 9 9 9 9 9 8 8 8 8 9
17 17 17 17 16 16 16 15 15 15 14 14 14 14 14 14 13 14 14 13 13 13 13 13 13 13 13 13 12 12 12 12 12 11 11 11 11 11 11 11 10 10 10 10 10 10 10 10 9 9 9 9 9 9 9 9 8 8 9 9 9 8 8 8 9 9 9 9 9 9 9 9 9 9 9 9 9 9 9 9 9 8 8 8 8
17 17 17 16 16 16 16 15 15 14 14 14 14 14 14 13 13 13 13 12 12 12 13 13 13 13 13 12 12 12 12 12 12 12 11 11 11 11 11 10 10 10 10 10 10 10 10 10 10 9 9 9 9 9 9 8 8 8 9 9 9 8 8 8 9 9 9 9 9 9 9 9 9 9 9 9 9 9 9 9 9 8 8 6 6
17 17 17 16 16 16 16 15 15 14 14 14 14 14 14 14 14 13 13 12 12 12 12 13 13 13 13 12 12 12 12 12 12 11 11 11 11 11 11 10 10 10 10 10 10 10 10 10 10 9 9 9 9 9 9 9 9 9 9 9 9 9 8 8 9 9 9 9 9 9 9 9 9 9 9 9 9 9 10 9 9 8 8 6 5
17 17 17 16 16 16 15 15 14 14 14 15 15 14 14 14 13 13 12 13 12 12 12 12 12 12 12 12 12 12 13 12 12 11 11 11 11 11 11 10 10 10 10 10 10 9 9 10 10 9 10 10 9 9 9 9 9 9 9 9 9 9 9 9 9 9 9 9 9 9 9 9 9 10 10 10 10 10 10 10 9 9 8 7 7
17 17 17 16 16 16 15 15 14 14 15 15 15 14 13 13 12 12 12 12 12 12 12 12 11 11 11 11 12 12 12 12 11 11 11 11 11 11 10 10 10 10 10 10 10 9 9 9 10 10 10 10 9 9 9 9 9 9 9 9 9 9 9 9 9 9 9 9 9 9 9 9 10 10 10 10 10 10 10 10 10 9 8 8 8
17 17 16 16 15 15 15 15 14 14 15 15 14 13 13 13 12 12 12 12 12 12 11 11 11 11 11 11 11 12 12 12 12 11 11 11 11 11 10 10 10 10 10 10 10 9 9 9 10 10 10 9 9 9 9 9 9 9 9 9 9 9 9 9 9 9 9 9 9 9 9 9 10 10 10 10 10 10 10 10 10 10 9 9 8
17 16 16 15 15 15 15 14 15 15 14 14 13 13 13 12 12 12 12 11 11 11 10 10 11 11 10 10 11 11 12 12 12 11 11 11 11 11 10 10 10 10 10 10 10 9 9 9 10 10 10 9 9 9 9 9 9 9 9 9 9 9 9 9 9 9 9 9 9 9 9 10 10 10 10 10 10 10 10 10 10 10 10 9 9
16 16 15 15 15 14 14 14 14 14 14 14 13 13 12 12 12 12 12 11 10 10 10 10 10 10 10 10 10 11 11 12 12 11 11 11 11 11 10 10 10 10 10 10 10 9 9 10 10 10 10 9 9 9 9 9 9 9 9 9 9 9 9 9 9 9 9 9 9 9 10 9 9 10 10 10 10 10 10 10 10 10 10 10 10
16 16 15 15 14 14 14 14 14 14 13 12 13 12 11 11 11 11 11 11 10 10 9 10 9 9 9 9 9 10 11 11 11 11 11 11 11 10 10 10 10 10 10 10 10 10 9 10 10 10 10 9 9 9 9 9 9 9 9 9 9 9 9 9 9 9 9 9 9 9 10 10 10 10 10 10 10 10 10 10 10 10 10 10 10
16 15 15 14 13 13 13 14 14 14 13 13 13 12 11 10 10 10 10 10 10 9 9 9 9 9 9 8 9 9 10 11 11 11 11 11 11 10 10 10 10 10 10 10 10 10 10 10 10 10 10 9 9 9 9 9 9 9 9 9 9 8 9 9 9 9 9 9 9 9 10 10 10 10 10 10 10 10 10 10 10 10 10 10 10
15 14 14 13 13 13 13 13 13 13 13 13 12 11 10 11 10 10 10 10 10 9 9 9 9 9 8 8 8 9 9 10 10 11 11 10 10 10 10 10 10 9 9 9 9 9 9 10 10 10 10 10 9 9 9 9 9 9 9 9 9 8 8 9 9 9 9 9 9 9 10 10 10 10 10 10 10 10 10 10 10 10 10 10 10
14 14 13 12 12 12 12 12 12 12 11 11 11 11 11 11 10 10 10 9 9 9 9 9 8 8 8 8 8 8 9 9 10 10 10 10 10 10 10 9 9 9 9 9 9 9 9 9 10 10 10 10 9 9 9 9 9 9 9 9 9 8 8 9 9 9 9 9 9 10 10 10 10 10 10 10 10 10 10 10 10 10 10 10 10
13 13 12 12 12 12 12 12 11 11 11 11 11 11 11 11 11 10 10 10 10 9 9 8 9 9 9 9 8 8 8 9 10 10 10 10 10 10 9 9 9 9 9 8 8 8 9 9 9 9 10 10 9 9 9 9 9 9 9 9 9 8 8 8 8 9 9 10 10 10 10 10 10 10 10 10 10 10 10 10 10 10 10 10 10
13 13 12 12 11 11 11 11 11 11 11 11 11 11 11 11 11 11 11 11 11 11 10 9 10 10 10 9 9 8 8 9 10 10 10 10 10 10 10 9 9 9 9 8 8 8 8 8 8 9 9 9 9 9 9 9 9 9 9 9 9 8 8 8 9 9 10 10 10 10 10 10 11 11 11 10 10 10 10 10 10 10 10 10 10
13 12 12 11 11 11 11 11 11 11 10 10 10 10 10 10 10 10 10 10 11 11 11 11 12 11 11 10 10 10 10 11 11 10 10 10 10 10 10 10 9 9 9 8 7 7 8 8 8 8 9 9 9 9 10 9 9 9 9 9 9 9 9 9 9 10 10 10 10 10 10 10 11 11 11 10 10 10 10 10 10 10 10 10 10
12 12 11 11 11 11 11 11 11 10 10 10 10 10 10 10 10 10 10 10 10 10 11 12 12 11 11 11 11 11 11 11 11 11 10 10 9 10 10 10 9 9 9 8 7 7 7 7 8 8 9 9 9 9 10 9 9 9 9 9 9 9 9 9 9 10 10 10 10 10 10 11 11 11 11 10 10 10 10 10 10 10 10 10 10
12 11 11 11 11 11 11 11 10 10 10 10 10 9 9 9 9 9 9 10 10 10 11 11 11 11 11 11 11 11 11 10 10 11 11 10 10 10 10 9 9 9 9 8 7 7 7 7 7 8 8 8 9 9 9 9 9 9 9 9 9 9 9 9 9 9 9 10 10 10 11 11 11 11 11 10 10 10 10 10 10 10 10 10 10
12 11 11 10 10 11 10 10 10 10 10 9 9 9 9 9 9 8 8 9 9 10 10 10 10 10 10 11 11 11 11 11 11 11 11 11 10 10 9 9 9 9 8 7 6 6 6 6 7 7 8 8 8 8 8 8 8 8 9 9 9 9 9 9 9 9 10 10 10 11 11 11 11 11 11 10 10 10 10 10 10 10 10 10 10
12 11 11 11 10 10 10 10 10 10 10 10 9 9 9 10 9 8 8 8 8 8 9 9 9 9 10 10 10 10 10 10 10 10 10 10 10 9 9 9 8 7 7 6 6 6 6 6 6 7 7 7 8 8 8 8 8 8 8 9 9 9 9 9 9 9 10 10 10 11 11 11 11 11 11 10 10 10 10 10 10 10 10 10 10
12 12 12 12 11 11 10 10 10 10 10 9 9 9 10 10 9 9 8 8 8 8 8 8 8 9 9 9 10 10 10 10 10 10 10 10 9 9 8 7 6 5 5 5 6 6 6 6 6 6 7 7 7 8 8 8 8 8 8 8 9 9 9 9 9 9 10 10 10 11 11 11 11 11 11 10 10 10 10 10 10 10 10 10 10
12 11 11 11 11 10 10 10 10 10 10 10 10 10 10 9 9 9 8 8 8 8 8 8 8 8 8 9 9 9 9 9 9 9 9 9 9 9 8 6 6 5 5 5 5 5 5 6 6 6 6 7 7 7 8 8 8 8 8 8 8 9 9 9 9 9 10 10 10 10 11 11 11 11 10 10 10 10 10 10 10 10 10 10 10
11 11 10 10 10 10 10 10 10 10 10 10 10 9 9 9 9 8 8 8 9 8 8 7 8 7 7 8 8 8 9 9 9 9 9 9 8 8 8 8 7 7 6 6 6 5 5 6 6 6 6 6 6 7 7 7 8 8 8 8 8 8 8 9 9 9 10 10 10 10 11 11 11 11 10 10 10 10 10 10 10 10 10 10 10
12 11 11 10 10 10 10 10 9 9 9 9 9 9 8 8 8 8 8 8 8 8 8 7 7 7 8 8 8 8 8 8 8 8 8 8 7 7 8 8 8 8 7 7 7 7 6 6 6 6 6 6 6 7 7 7 7 7 8 8 8 8 8 9 9 9 9 10 10 10 11 11 11 11 10 10 10 10 10 10 10 10 10 10 10
11 11 10 10 10 10 10 10 9 9 9 9 9 9 8 8 8 8 8 8 7 7 7 7 7 8 8 8 7 7 7 7 7 7 8 8 7 7 7 8 8 8 8 8 8 7 7 7 7 6 6 7 7 7 7 7 7 7 7 8 8 8 8 9 9 9 9 10 10 10 11 11 11 10 10 10 10 10 10 10 10 10 10 10 10
11 10 10 10 10 10 10 9 9 9 9 9 9 8 8 8 8 8 7 7 7 7 7 7 7 8 8 8 8 8 7 7 7 8 8 8 8 8 8 8 8 8 8 8 8 8 8 8 7 7 7 8 8 8 8 8 7 8 8 8 8 8 8 9 9 9 9 10 10 10 11 11 11 10 10 10 10 10 10 10 10 10 10 10 10
11 10 10 10 10 10 9 9 9 9 9 9 9 8 8 8 8 7 7 7 7 7 7 7 8 8 8 9 9 8 8 7 8 8 9 9 9 9 8 8 8 9 9 9 9 9 9 9 8 8 8 8 8 8 8 8 8 8 8 8 8 8 8 9 9 9 9 10 10 11 11 11 11 10 10 10 10 10 10 10 10 10 10 10 10
11 10 10 10 10 10 10 9 9 9 9 9 8 8 8 8 8 8 8 7 7 7 7 7 7 8 8 9 9 8 7 8 8 9 9 9 9 9 9 9 9 9 9 9 9 9 9 9 9 9 9 8 8 8 8 8 8 8 8 8 8 8 8 9 9 9 10 10 10 11 11 11 11 11 11 11 11 10 10 10 10 10 10 10 10
11 10 10 10 10 10 10 9 9 9 9 9 8 8 8 8 8 8 8 7 7 7 7 7 7 7 8 8 8 7 7 7 8 8 9 9 9 9 10 10 10 10 10 10 10 9 9 9 9 9 9 9 9 9 9 8 8 8 8 8 8 8 8 9 9 10 10 10 11 11 11 11 11 11 11 11 11 10 10 10 10 10 10 10 10
11 11 10 10 10 10 10 10 10 10 10 9 8 8 8 8 8 7 7 7 7 7 7 7 7 7 7 7 7 7 7 7 7 8 8 9 9 10 10 10 10 10 10 10 10 9 9 9 9 9 9 9 9 9 9 9 8 8 8 8 8 8 9 9 9 10 10 11 11 11 11 11 11 11 11 11 10 10 10 10 10 10 10 10 10
11 11 11 10 10 10 9 9 9 9 9 8 8 8 8 8 8 8 8 7 7 7 7 7 8 8 8 7 7 7 7 7 7 8 8 9 9 9 9 9 10 10 10 10 10 9 9 9 9 9 9 9 9 9 9 9 8 8 8 8 8 8 9 9 9 10 10 10 10 11 11 11 11 10 10 10 10 10 10 10 10 10 10 10 10
11 11 11 10 9 9 9 8 8 8 8 8 8 8 8 8 8 8 8 8 7 7 7 8 8 8 8 8 7 7 8 8 8 8 9 9 9 9 9 9 9 9 9 10 9 9 9 9 9 9 9 9 9 9 9 9 9 8 8 8 8 9 9 9 9 9 10 10 10 10 10 11 11 10 10 10 10 10 10 10 10 10 10 10 10
11 11 11 10 9 9 9 8 8 8 8 8 8 8 8 8 8 8 8 8 8 7 8 8 8 8 8 7 7 8 8 8 9 9 9 9 9 9 9 9 9 9 9 9 9 9 9 9 9 9 9 9 9 9 8 8 8 8 8 8 8 8 9 9 9 9 10 10 10 10 10 10 10 10 10 10 10 10 10 10 10 10 10 10 10
12 12 11 11 10 9 9 8 8 8 8 8 8 8 8 8 8 8 8 8 8 7 8 8 8 8 8 7 8 8 8 8 9 9 9 9 10 10 10 10 10 10 9 9 9 9 9 9 9 8 8 8 8 8 8 8 8 8 8 8 8 8 8 9 9 9 10 10 10 10 10 10 10 10 10 10 10 10 10 10 10 10 10 10 10
12 12 11 11 11 10 9 9 9 9 9 8 8 8 8 8 8 8 8 8 8 8 8 8 8 8 8 8 8 8 9 9 9 9 9 10 10 10 10 10 10 10 10 9 9 9 9 9 9 8 8 8 8 8 7 7 8 8 8 8 8 8 8 9 9 9 9 10 10 10 10 10 10 10 10 10 10 10 10 10 10 10 10 10 9
12 11 11 11 11 10 9 9 9 9 8 8 8 8 8 8 8 8 8 8 8 8 8 8 8 8 8 8 9 9 9 10 10 10 10 10 10 10 10 10 10 10 10 10 9 9 9 9 9 9 8 8 8 8 8 8 8 8 8 8 8 8 9 9 9 9 9 10 10 10 10 10 10 10 10 10 10 10 10 10 10 10 9 9 9
11 11 11 10 10 9 9 9 9 9 9 9 9 8 8 8 8 8 8 8 8 8 8 8 8 8 8 9 9 10 10 10 10 10 10 11 11 11 10 10 10 10 10 10 10 10 9 9 9 9 9 9 8 8 8 8 8 8 8 8 9 9 9 9 10 10 10 10 10 10 10 10 10 10 10 10 10 10 10 10 10 9 9 9 8
Height
744 747 751 754 757 760 763 766 768 772 775 778 781 784 787 789 792 795 798 800 802 804 806 807 809 810 811 813 814 816 817 819 820 821 822 824 824 825 827 828 830 831 832 833 834 835 836 838 839 840 841 842 843 843 843 844 844 844 845 845 846 847 848 848 851 854 855 855 855 854 854 853 852 852 851 850 849 848 847 845 843 840 838 835 833
741 744 748 751 754 756 760 763 766 770 773 776 779 782 784 787 790 793 795 798 800 802 804 806 808 809 810 812 813 815 816 818 819 820 822 823 824 825 827 828 829 830 831 832 834 835 837 838 839 841 842 842 843 844 844 844 844 845 846 846 847 847 848 849 851 853 854 855 854 854 853 853 852 851 851 849 848 847 846 844 842 839 837 834 831
738 741 745 749 751 754 758 760 764 767 770 774 777 779 782 785 788 791 793 796 798 801 803 805 806 808 809 811 812 814 815 817 818 820 821 823 824 825 826 827 829 830 831 832 834 835 837 838 840 841 842 842 843 844 844 845 845 845 846 847 847 847 848 849 850 852 853 854 854 853 853 852 852 851 850 849 848 846 845 843 840 838 835 833 830
735 739 743 746 749 752 755 758 761 764 768 771 774 777 780 783 786 789 791 794 797 799 802 803 805 806 808 810 811 813 815 816 818 819 821 822 823 825 826 827 828 829 831 832 834 835 837 838 839 841 842 842 843 844 844 845 845 846 846 847 847 848 849 850 850 851 853 853 853 853 853 852 852 851 850 848 847 846 844 841 839 837 834 831 828
733 736 740 744 747 750 752 755 758 760 764 768 772 775 778 781 784 787 790 792 795 798 800 802 803 805 807 808 810 812 814 816 817 819 821 822 823 825 826 827 828 830 831 832 834 836 837 838 839 840 841 842 843 844 844 845 845 846 847 847 847 848 849 850 850 851 852 852 853 853 852 852 851 850 849 847 846 844 842 840 838 835 833 830 827
730 733 737 740 744 747 750 752 754 757 761 765 769 773 776 779 782 785 788 790 793 796 798 800 802 804 806 807 809 811 813 815 816 818 820 822 823 824 826 827 828 830 831 833 835 836 837 838 839 840 841 842 842 843 844 845 845 846 847 847 847 848 849 850 850 851 851 852 852 852 851 851 850 849 848 846 844 842 840 838 836 834 832 829 827
727 730 734 737 740 743 745 748 751 755 758 762 767 771 774 777 780 783 786 788 791 793 796 798 801 803 805 806 808 810 812 814 816 817 819 821 822 824 825 827 828 830 832 834 835 836 837 838 839 840 841 842 842 843 843 844 845 846 846 847 847 848 849 849 850 851 851 851 851 851 850 850 849 848 847 846 844 842 839 837 835 833 831 829 826
723 727 731 734 736 739 742 746 749 753 756 759 764 768 772 775 777 780 783 786 788 791 794 797 799 802 803 805 807 809 811 812 814 816 818 820 822 823 825 826 828 830 832 834 835 836 837 838 839 840 841 842 842 843 843 844 845 845 846 847 847 848 849 849 850 850 850 850 850 850 849 849 848 847 846 845 843 841 839 837 835 832 830 828 826
720 723 727 730 732 736 740 744 747 751 755 757 761 766 770 772 775 777 780 783 786 789 792 795 797 799 802 804 806 808 809 811 813 815 817 819 821 823 824 826 828 830 832 833 834 836 837 838 839 840 841 841 842 842 843 844 844 845 845 846 847 848 848 849 849 849 849 849 849 849 848 848 847 846 845 843 842 840 839 837 835 833 831 828 826
717 721 723 726 730 734 737 741 745 749 752 754 758 763 767 770 772 774 777 781 784 787 790 793 795 797 799 802 804 806 808 810 812 814 816 818 820 822 824 826 828 829 831 832 834 835 837 838 839 840 840 841 841 842 842 843 844 845 845 846 847 847 847 848 848 848 849 848 848 848 847 847 846 845 844 843 842 840 838 836 834 832 830 828 825
714 718 721 724 728 732 735 739 742 746 750 753 755 759 764 767 770 772 776 779 782 785 788 790 792 794 797 799 801 803 805 808 810 813 815 817 819 821 823 825 827 829 831 832 834 835 836 838 838 839 840 840 841 841 842 843 843 844 845 845 846 846 847 847 847 847 847 847 847 847 847 846 845 845 844 842 841 839 837 836 834 831 829 827 825
711 715 718 722 726 729 732 736 740 743 747 750 753 757 762 766 768 770 773 777 780 782 785 787 790 793 795 797 799 801 803 806 808 811 813 816 818 820 822 825 826 828 830 832 834 835 836 837 838 838 839 840 840 841 842 842 843 843 844 845 845 846 846 846 846 846 846 846 846 846 846 845 844 844 843 842 840 839 837 835 833 831 829 828 825
709 712 716 720 723 726 730 733 737 741 744 748 752 756 761 764 766 767 769 773 777 780 784 787 789 791 793 796 798 799 802 804 807 809 812 815 817 819 822 824 826 827 829 831 833 834 835 836 837 838 839 839 840 841 841 842 842 843 843 844 844 845 845 845 845 845 845 845 845 845 845 844 844 843 842 841 839 838 836 835 833 831 829 827 825
706 710 713 717 720 724 728 731 734 738 742 747 751 754 758 761 763 764 766 769 773 777 781 784 786 789 791 793 796 798 800 803 805 808 811 813 816 818 821 823 824 826 828 830 832 833 834 835 836 837 838 839 839 840 840 841 841 842 842 843 843 844 844 844 844 844 844 844 844 844 844 843 843 842 841 840 839 837 836 834 833 831 830 827 825
705 708 711 714 717 721 725 728 732 736 740 745 748 752 755 757 758 760 762 765 769 773 776 779 782 786 788 791 793 796 798 801 804 807 810 812 815 817 819 821 823 825 827 829 830 832 833 834 835 836 837 838 838 839 840 840 840 841 841 842 843 843 843 843 843 843 843 843 843 843 843 842 842 841 841 839 838 837 835 834 833 831 830 827 825
703 706 709 711 714 718 722 726 729 733 737 742 745 748 751 752 754 756 758 761 766 770 773 776 779 782 785 788 791 793 796 799 802 805 809 811 814 816 818 820 822 824 826 827 829 830 831 832 833 834 835 836 837 838 839 839 839 840 840 841 841 842 842 842 842 842 842 842 842 842 842 842 841 841 840 839 838 836 835 834 832 831 829 826 824
700 703 706 708 711 714 718 723 727 731 735 739 742 744 746 748 750 753 755 759 763 767 770 773 776 779 782 785 788 791 794 797 800 803 806 809 811 814 817 818 820 822 824 826 827 829 830 831 832 833 835 835 836 837 838 838 838 839 839 840 840 840 841 841 841 841 841 841 842 841 841 841 840 840 839 838 837 836 835 833 832 830 828 826 824
697 699 702 705 708 712 716 720 724 729 733 736 738 739 741 744 746 748 751 755 759 763 767 771 774 777 780 783 786 789 792 795 798 801 804 807 809 812 814 817 819 821 822 824 826 827 828 830 831 832 833 834 835 836 837 837 837 838 838 838 839 839 839 840 840 840 840 840 840 840 840 840 840 839 838 837 836 835 834 832 831 829 828 826 824
693 695 699 702 706 710 714 718 722 726 730 733 734 735 737 740 743 746 751 754 758 762 767 771 773 774 778 782 785 788 790 793 796 799 802 806 808 810 812 815 817 819 821 822 824 825 826 828 829 830 831 833 834 834 835 836 836 836 837 837 837 837 838 838 839 839 839 839 839 839 839 839 838 838 837 836 835 834 833 831 830 829 827 825 823
690 694 698 702 705 708 712 717 721 724 726 728 731 733 736 740 743 748 752 756 759 762 766 768 770 772 776 780 784 787 789 791 794 797 800 803 805 807 810 812 814 816 818 820 821 822 824 825 826 827 829 831 832 833 833 834 835 835 836 836 836 836 836 837 837 837 837 838 838 838 838 838 837 837 836 835 834 833 832 831 829 828 826 824 822
689 694 698 701 704 707 710 715 720 723 724 725 728 732 736 740 743 747 750 753 756 760 763 766 770 773 776 779 782 785 787 789 792 795 797 800 802 804 806 808 811 813 815 817 819 820 822 822 823 825 827 829 830 831 832 832 833 834 834 834 835 835 835 836 836 836 836 837 837 837 837 836 836 835 834 834 833 832 831 830 829 827 825 824 821
689 693 696 699 703 706 710 714 718 721 724 725 728 732 736 740 743 745 749 752 756 759 763 765 768 772 776 778 780 783 786 788 790 793 795 797 800 802 804 806 808 811 813 814 816 818 820 821 822 823 825 827 828 829 830 831 831 832 833 833 833 834 834 834 835 835 835 835 836 836 836 835 835 834 833 832 831 831 830 829 828 827 825 823 821
687 690 694 697 701 705 708 712 715 719 722 724 727 731 734 738 742 745 748 752 756 760 764 766 767 770 773 776 779 781 784 787 789 791 793 795 797 800 802 804 806 809 810 812 814 816 818 819 821 822 824 825 826 827 828 829 829 830 831 832 832 832 833 833 833 833 834 834 834 834 834 834 834 833 832 831 830 829 829 828 827 825 824 822 820
684 687 691 694 698 702 706 710 713 717 720 723 726 728 731 735 739 744 747 750 753 758 763 765 766 768 770 774 777 780 783 785 787 789 791 793 796 798 800 803 805 807 809 811 813 815 816 818 819 821 822 823 824 825 826 827 828 829 829 830 830 831 831 831 832 832 832 832 833 833 833 832 832 831 831 830 829 828 828 826 825 824 822 821 819
680 684 689 693 697 701 705 709 711 714 718 721 724 727 731 735 739 743 746 749 751 755 760 763 764 765 768 772 775 778 780 783 786 788 790 792 794 797 799 801 803 806 808 810 812 814 815 817 818 819 821 822 823 823 824 825 826 827 828 828 829 829 829 830 830 830 831 831 831 831 831 831 830 830 829 828 827 827 826 825 824 823 821 819 818
679 683 687 692 696 700 704 708 711 713 716 719 722 725 729 733 737 741 744 747 750 752 756 760 762 764 767 769 772 775 778 781 783 786 789 791 793 795 797 799 802 804 806 808 810 812 814 816 817 818 819 820 821 821 822 823 825 825 826 826 827 827 828 828 828 829 829 829 829 829 829 829 828 828 827 827 826 825 825 824 823 822 820 818 816
681 684 687 691 695 699 703 706 710 713 716 719 722 725 728 731 735 738 742 744 748 751 754 757 760 763 765 767 770 773 776 779 781 783 786 788 790 793 795 797 800 802 804 806 809 811 813 814 815 816 817 818 819 820 820 822 822 823 824 825 825 826 826 826 827 827 827 827 827 827 827 827 826 826 826 825 824 824 824 823 821 820 819 817 815
685 688 690 692 695 698 702 705 708 712 715 718 720 723 725 728 730 733 735 738 742 746 750 753 755 758 761 764 767 771 774 776 778 779 782 784 787 790 792 794 797 799 801 804 807 809 811 812 813 814 815 816 817 817 818 819 820 821 822 823 823 824 824 825 825 825 825 826 826 825 825 825 824 824 824 823 823 823 822 821 820 819 818 816 814
680 686 690 693 695 697 701 705 708 711 714 717 720 722 724 725 727 730 733 736 738 740 744 748 751 754 757 761 764 768 770 772 773 776 779 782 784 787 789 791 793 796 798 801 804 807 809 810 811 812 813 813 814 815 816 816 817 818 820 821 821 822 822 822 823 823 824 824 823 823 823 822 822 822 821 821 821 821 821 820 819 818 817 815 814
673 679 685 689 692 695 699 703 707 710 713 717 720 723 726 728 730 732 735 737 739 740 743 746 749 752 756 759 761 764 766 768 771 775 778 780 782 784 786 788 790 793 796 799 802 804 806 808 809 810 811 811 812 812 813 814 815 816 817 818 819 820 820 820 821 821 822 822 821 821 821 820 820 820 819 819 819 819 819 818 818 817 815 814 812
671 674 678 683 688 692 696 701 705 709 713 716 719 722 726 729 731 733 735 737 740 742 744 746 749 751 754 757 760 763 766 768 771 774 776 778 780 782 784 786 788 790 793 796 798 801 803 805 807 808 809 809 810 810 811 812 812 814 815 816 817 817 818 818 818 819 820 819 819 819 818 818 818 818 817 817 817 817 817 817 816 815 814 813 811
672 675 677 681 686 691 695 699 703 707 712 715 718 720 723 727 730 733 736 738 740 742 744 746 748 750 753 756 759 762 764 767 769 772 774 776 778 780 782 783 785 788 790 793 795 797 800 802 804 805 806 807 807 808 809 810 811 812 813 814 815 815 815 816 817 817 817 817 817 816 816 816 815 815 815 815 815 815 815 815 814 813 813 812 810
673 675 678 680 685 690 695 698 702 706 709 713 716 719 721 724 727 731 734 737 740 741 743 744 746 748 751 754 757 759 762 765 767 770 773 775 777 778 781 783 784 786 788 789 792 795 798 800 801 803 803 804 805 807 808 808 809 810 811 812 812 813 813 814 814 815 815 815 815 814 814 813 813 813 813 813 813 813 813 813 812 812 811 810 809
674 675 678 681 685 689 693 697 701 704 707 710 713 716 718 721 724 728 731 734 737 739 740 742 744 746 749 752 755 758 761 763 766 769 771 774 776 777 779 781 783 784 786 787 790 792 794 796 798 800 801 802 803 805 806 806 808 809 809 810 810 811 811 812 812 812 812 812 812 812 812 811 811 811 811 811 811 812 812 811 811 810 809 809 807
675 676 679 681 684 688 692 696 699 703 706 709 712 714 717 720 723 725 727 730 732 734 737 740 743 746 748 750 753 756 759 762 765 768 770 772 774 775 777 779 780 782 784 786 787 789 791 793 795 796 798 799 801 802 803 804 805 806 807 807 808 809 809 809 810 810 810 810 810 809 809 809 809 809 809 809 810 810 810 809 809 809 808 807 806
675 678 681 683 686 689 692 696 699 701 705 708 711 713 716 718 721 724 726 728 731 733 736 738 742 745 748 750 752 755 759 761 764 767 769 770 771 772 774 775 777 779 781 783 785 787 789 791 792 794 795 796 798 799 800 802 803 803 804 805 806 806 807 807 807 807 807 807 807 807 807 807 807 807 807 807 808 808 808 808 808 807 806 806 805
675 679 682 685 688 690 694 697 700 702 704 707 710 713 715 718 721 723 726 728 730 732 735 737 740 743 746 748 751 754 758 761 764 766 767 768 769 770 771 773 775 777 778 780 782 784 786 788 789 791 792 794 795 796 797 799 800 801 802 803 803 804 804 804 804 805 805 805 805 805 805 805 805 805 805 806 806 806 806 806 806 806 805 804 803
677 680 683 686 689 692 695 699 701 704 705 708 710 713 715 718 721 723 725 727 729 731 734 736 738 741 744 746 749 752 755 759 762 764 765 765 766 768 769 771 773 774 775 777 779 781 782 784 786 788 789 791 792 793 794 795 797 798 799 800 801 801 801 801 802 802 802 802 802 802 802 802 802 803 803 804 804 805 805 805 804 804 803 803 802
680 682 685 688 690 693 696 699 702 704 706 708 710 713 715 717 720 722 724 726 728 730 732 734 737 740 742 745 748 751 754 756 759 761 762 763 764 766 768 769 771 772 773 775 777 778 780 782 783 785 787 788 789 790 791 792 793 795 796 797 798 798 798 798 799 799 799 799 799 800 800 800 800 800 801 802 802 803 803 803 803 802 802 801 800
681 684 687 689 692 694 697 699 702 704 706 708 710 712 714 716 718 720 722 724 726 729 731 733 736 738 741 744 747 749 751 753 755 757 759 760 761 763 765 767 768 770 772 773 775 776 778 779 781 782 784 785 786 787 788 789 790 792 793 794 795 795 795 796 796 796 796 797 797 797 797 797 797 798 799 800 801 801 801 801 801 801 800 799 799
681 685 687 690 692 695 697 699 701 703 705 707 709 711 713 715 716 718 720 722 725 727 730 733 735 737 740 742 745 747 749 750 752 754 756 757 759 761 762 764 766 768 769 771 773 774 776 777 779 780 781 783 784 785 786 787 788 789 790 791 792 792 792 793 793 793 794 794 794 794 795 795 795 796 797 798 798 799 799 799 799 799 798 798 797
682 685 687 690 692 694 697 699 701 703 705 707 708 710 711 713 715 717 719 721 724 727 730 733 735 737 739 741 743 745 747 749 750 752 754 755 757 759 760 762 764 765 767 768 770 772 774 775 777 778 779 780 781 782 783 784 786 787 788 789 789 789 789 790 790 790 791 791 792 792 792 793 793 794 795 796 796 797 797 797 797 797 796 796 795
684 685 687 690 692 694 696 698 701 703 704 706 707 709 711 712 714 716 718 721 724 726 729 732 734 736 738 740 742 744 746 747 749 751 752 754 756 757 758 760 761 763 764 766 768 770 772 773 775 776 777 778 779 780 781 782 783 785 786 786 787 787 787 787 787 788 788 788 789 790 791 791 792 792 793 794 794 795 795 795 795 795 794 794 793
685 686 688 690 692 694 696 698 700 702 703 705 707 709 710 712 714 716 718 721 724 726 729 731 733 735 737 739 741 743 744 746 747 749 751 753 754 755 756 758 759 761 762 764 765 767 769 771 772 774 775 776 777 778 779 780 781 782 783 784 784 784 785 785 785 785 785 786 787 788 789 789 790 790 791 792 792 792 792 792 792 792 792 792 791
685 687 688 690 692 694 696 698 700 701 703 705 707 708 710 712 714 716 719 721 723 725 728 730 732 733 735 737 738 740 742 744 746 748 750 751 752 753 754 756 757 758 760 762 763 765 766 768 770 771 772 773 775 776 777 778 778 779 780 781 782 782 782 783 783 783 784 784 785 786 787 787 788 788 789 790 790 790 790 790 789 789 789 789 789
685 687 688 690 692 694 696 698 700 701 703 705 706 708 710 712 714 716 718 720 723 725 727 729 731 732 733 735 736 738 741 743 744 746 748 749 749 750 752 753 755 756 758 759 761 762 764 765 767 768 769 770 772 773 774 775 775 776 777 778 779 779 780 781 781 781 782 782 783 784 785 785 786 786 787 787 787 787 787 787 787 786 787 786 786
686 687 689 690 692 694 696 697 699 701 703 705 706 708 710 712 714 716 718 720 723 725 727 728 729 730 731 733 735 737 739 741 743 745 746 746 747 748 749 751 752 754 755 757 758 760 761 762 763 764 766 767 768 769 770 771 772 773 774 775 776 777 777 778 779 779 780 781 781 782 783 783 784 784 784 785 785 785 784 784 784 784 784 784 784
686 688 689 691 692 694 696 697 699 701 702 705 707 708 710 712 714 716 718 720 722 724 726 727 728 729 730 732 734 736 738 740 741 743 744 744 745 746 747 748 750 751 753 754 756 757 758 759 760 761 762 763 764 765 766 768 769 770 771 772 773 774 775 776 776 777 777 778 779 780 780 781 781 782 782 782 782 782 782 782 782 782 782 782 782
688 689 690 691 693 694 696 697 699 700 702 704 707 709 711 713 715 716 718 720 721 723 725 726 727 728 729 731 732 734 736 738 739 740 741 742 743 744 745 746 748 749 750 752 753 754 755 756 757 758 759 760 760 761 762 763 765 766 767 768 769 770 771 772 773 774 775 776 776 777 778 778 778 779 779 779 780 780 780 780 780 780 780 780 780
689 690 692 693 694 696 697 699 700 701 703 705 707 709 711 713 714 716 718 719 720 722 723 724 725 726 728 729 730 732 734 735 736 737 738 739 740 742 743 744 746 747 748 749 750 751 752 753 754 755 756 756 757 758 759 760 761 762 762 764 765 766 768 769 770 771 772 773 773 774 775 775 775 776 776 777 777 777 777 777 778 778 778 778 778
691 692 694 695 696 697 699 700 701 702 703 705 706 708 710 712 714 715 717 718 719 720 721 723 724 725 726 727 729 730 731 733 734 735 736 737 738 739 741 742 743 744 746 747 748 749 750 750 751 752 753 754 754 755 756 756 757 758 759 760 761 763 764 766 767 768 769 770 770 771 772 772 772 773 774 774 774 774 774 775 775 775 775 775 775
Wind_Speed
37 37 37 37 36 36 36 36 37 36 36 36 36 35 35 35 35 34 33 32 31 30 28 26 24 22 21 20 19 18 18 17 17 16 15 16 16 17 17 17 17 16 16 16 15 15 16 17 17 16 15 14 13 12 12 10 9 9 8 9 12 11 11 15 13 8 6 7 7 7 7 7 8 9 11 13 15 16 17 18 20 22 24 25 25
37 38 37 37 37 37 37 37 37 36 36 36 35 35 35 34 34 34 34 33 32 31 29 27 25 23 22 21 20 19 18 18 18 17 17 17 18 18 18 18 18 18 18 17 17 18 19 19 19 17 16 15 14 13 12 11 9 9 8 8 10 10 10 13 13 9 6 7 7 8 7 8 9 11 12 15 17 17 18 20 22 24 26 27 26
38 38 37 37 37 37 37 37 37 37 36 36 35 35 34 34 34 34 35 34 33 31 30 28 26 24 23 22 21 19 19 19 19 19 18 19 19 20 19 19 19 19 19 20 20 21 21 21 19 17 16 15 15 13 12 11 9 8 8 6 8 10 10 10 12 10 7 6 8 9 8 8 9 11 13 15 17 17 19 21 23 25 27 28 28
37 37 37 36 36 36 37 37 38 37 36 36 35 35 35 34 34 35 35 34 34 32 30 28 26 25 24 23 22 20 20 20 20 20 19 19 20 21 21 20 20 20 20 21 22 22 21 21 19 18 16 16 15 14 12 11 9 8 8 6 7 10 11 11 11 11 9 7 7 8 8 8 9 11 14 16 16 17 19 21 24 26 29 29 28
37 37 37 36 35 36 36 37 38 39 38 36 35 35 35 35 35 35 35 35 34 33 31 29 27 26 26 24 23 21 21 21 21 21 20 20 20 21 21 21 21 21 21 22 22 21 21 21 20 18 17 16 16 14 12 10 9 7 7 8 10 11 12 12 11 11 9 8 7 7 8 9 10 12 15 17 18 19 21 23 25 27 30 30 28
37 37 36 35 35 36 36 37 38 39 38 37 36 36 35 35 36 36 35 35 35 34 32 30 28 27 26 25 23 22 22 22 22 21 21 21 21 21 21 21 22 22 22 21 20 20 20 19 18 18 17 16 16 14 12 10 9 8 9 12 12 12 12 11 10 9 8 7 7 7 8 9 11 13 15 17 19 20 23 25 27 28 30 30 28
36 36 36 35 36 36 37 38 38 38 38 37 37 36 35 35 36 36 36 35 36 35 33 31 29 28 27 25 24 23 23 23 22 22 22 22 22 22 22 22 23 22 21 20 20 20 19 18 17 16 15 14 14 13 12 10 9 10 12 13 13 11 10 9 8 7 7 7 6 7 8 9 11 13 14 16 18 20 22 24 26 28 30 30 28
36 36 35 35 36 38 38 37 37 37 37 37 37 36 36 36 37 37 36 36 36 36 34 32 30 29 27 26 24 24 24 24 24 23 23 23 23 23 23 23 23 22 21 20 19 20 19 17 16 15 13 11 10 11 12 11 11 13 14 13 11 10 9 8 7 6 6 6 6 6 8 9 11 13 15 16 18 20 21 22 24 27 29 30 28
36 36 35 35 36 37 37 36 36 37 36 37 37 36 36 37 38 37 37 37 37 36 34 32 31 30 28 26 25 25 25 25 24 24 24 24 24 23 23 23 23 22 21 20 19 19 18 17 15 13 12 9 8 9 11 11 11 13 13 12 10 9 7 6 5 5 5 5 5 6 8 9 12 14 15 17 18 20 22 22 23 25 27 29 28
34 34 35 35 35 36 36 36 36 36 36 37 38 38 37 37 38 37 37 37 37 35 34 33 32 31 29 27 26 26 26 25 25 24 25 25 24 23 23 24 23 22 22 20 20 19 18 16 14 12 11 9 8 9 11 11 11 11 11 10 9 7 6 5 5 4 4 5 5 5 7 10 12 14 14 16 18 19 21 21 22 24 25 26 25
34 34 34 34 34 35 35 35 36 37 36 37 38 39 39 38 38 37 37 37 37 36 35 35 33 32 30 29 28 27 27 26 25 25 25 25 25 25 24 24 24 22 21 21 21 20 18 15 13 11 10 10 9 11 13 12 11 10 9 8 7 5 5 5 4 4 4 4 4 4 6 9 12 13 13 15 17 19 20 21 21 23 23 20 18
34 33 33 32 33 34 35 35 36 37 37 37 38 39 37 36 37 37 37 37 37 37 36 35 34 32 31 29 28 28 27 26 25 26 26 26 25 25 25 24 24 23 21 21 21 20 18 16 13 11 10 11 12 13 12 11 9 8 7 7 6 4 3 4 4 4 4 4 4 5 6 9 11 12 13 14 17 18 19 21 21 22 23 20 19
34 33 32 32 33 34 35 35 35 36 37 37 38 38 36 35 36 38 39 39 37 36 35 34 34 33 31 30 29 29 27 27 26 27 27 26 26 26 25 24 24 23 22 22 22 21 18 16 14 11 10 12 13 12 10 10 8 6 6 7 6 3 3 4 4 4 4 4 4 5 7 9 10 11 12 14 16 17 17 20 22 22 23 23 24
33 32 32 33 33 33 34 35 36 36 37 37 37 37 37 37 38 40 40 39 36 34 35 36 35 33 32 31 30 30 28 27 27 27 27 27 27 26 25 24 25 24 23 24 23 20 18 16 14 12 12 13 13 12 10 9 8 5 6 8 6 3 4 5 4 3 4 3 4 6 7 8 8 9 11 13 15 16 16 19 20 21 23 25 26
31 31 32 32 34 34 34 35 35 36 37 37 37 37 39 40 41 41 41 39 37 37 38 38 36 34 34 33 32 31 30 29 28 28 28 28 27 27 25 25 25 24 24 24 22 20 18 16 15 14 13 13 13 12 10 9 7 4 5 7 7 5 6 5 3 2 3 2 3 6 7 7 7 8 11 13 15 16 17 18 19 19 22 25 27
29 30 31 32 34 35 36 35 36 37 38 38 37 37 39 40 40 41 40 38 37 38 39 39 37 36 35 34 34 33 31 30 29 28 28 28 28 27 25 24 24 25 25 23 21 19 17 16 16 15 14 12 12 11 10 8 6 3 3 5 6 7 7 6 3 3 3 1 2 5 6 6 6 8 10 12 14 16 16 18 19 20 22 24 25
30 31 32 33 34 36 37 37 35 36 38 38 38 39 40 40 40 40 38 35 35 37 39 38 37 37 36 36 35 34 33 31 30 30 29 29 29 28 25 25 25 25 24 23 22 20 17 16 16 16 15 13 12 11 11 8 7 5 3 4 6 8 9 7 4 4 3 1 1 4 5 4 5 7 8 11 13 15 16 18 20 20 21 19 17
32 33 33 34 35 36 37 37 37 37 38 39 40 42 42 42 42 42 39 37 37 39 39 38 36 36 37 37 36 35 34 33 32 31 30 31 31 28 26 26 27 25 23 23 22 20 18 17 16 16 16 15 13 13 12 10 8 6 5 4 5 8 9 8 5 5 5 3 1 2 3 3 4 5 6 9 12 14 17 18 19 19 20 18 15
34 34 34 34 35 36 36 36 36 38 40 41 42 42 42 42 39 37 36 36 36 36 35 35 35 35 35 36 36 35 34 33 33 32 31 32 31 28 26 28 28 26 25 24 23 20 19 20 19 18 18 17 15 14 13 12 10 7 6 6 6 7 9 9 7 7 7 5 3 1 2 2 3 4 5 8 11 14 17 19 20 19 19 20 19
34 33 32 32 33 34 35 34 34 38 43 44 42 39 37 34 30 30 32 32 32 32 34 35 34 33 33 34 35 35 34 33 34 34 32 33 32 28 27 29 29 27 26 26 24 22 21 21 21 21 20 19 17 15 14 13 11 9 7 6 6 6 8 9 8 7 6 5 4 3 4 3 3 4 5 7 10 13 16 18 20 22 20 21 22
31 29 29 30 31 32 34 34 34 37 42 42 39 37 35 30 28 32 35 33 32 33 33 31 30 30 31 33 34 35 34 33 34 35 34 33 32 29 29 30 30 28 28 27 25 23 21 21 21 20 20 20 18 16 15 14 13 11 9 6 5 6 8 9 8 7 6 5 5 5 5 5 5 4 6 8 10 13 15 16 18 22 23 22 22
28 28 28 28 30 31 33 35 37 39 39 38 35 33 32 29 30 34 34 30 30 30 29 29 30 29 30 31 33 34 34 33 34 35 35 33 31 30 30 30 30 29 28 27 25 22 21 20 19 19 19 20 18 16 14 14 13 12 10 7 6 7 8 9 9 8 7 6 6 6 6 6 7 7 7 9 10 12 14 15 17 19 22 24 24
29 30 29 30 30 31 32 35 36 36 36 38 37 35 32 30 31 33 32 28 26 26 26 28 30 29 29 30 31 33 34 34 35 35 34 32 31 30 29 29 28 28 28 26 23 22 22 21 19 18 18 19 19 16 14 13 13 12 10 8 8 8 8 9 9 9 8 8 8 8 8 8 9 10 11 11 12 13 14 15 16 17 19 23 24
32 31 31 31 30 30 32 34 36 35 32 33 34 34 32 31 32 32 31 29 28 27 26 27 28 27 27 27 28 30 32 34 35 35 33 31 30 30 29 28 27 27 26 24 21 21 23 22 20 18 17 17 18 16 15 15 14 11 10 9 8 9 9 9 9 9 10 10 10 11 11 11 11 13 14 14 15 15 15 14 14 16 19 21 22
31 30 29 29 29 30 31 33 36 36 35 34 34 32 31 31 31 31 30 29 29 29 28 28 28 27 26 26 28 30 31 33 34 33 31 29 29 29 29 28 27 26 25 23 21 21 23 23 20 18 16 16 17 18 17 17 14 12 11 10 10 10 11 10 10 11 12 13 13 13 13 13 14 15 15 16 16 16 15 14 13 14 18 21 21
28 27 28 28 30 32 33 33 34 35 36 37 36 33 32 32 32 31 30 29 29 29 29 28 26 25 25 25 27 29 31 32 32 32 30 29 29 29 29 28 27 26 24 23 21 21 22 22 21 19 18 18 18 19 19 18 16 14 13 12 12 11 12 12 12 12 13 14 15 16 16 16 16 16 14 16 16 15 15 14 13 15 19 21 21
21 24 27 29 31 33 33 34 33 33 33 32 31 32 33 34 32 31 30 30 28 28 28 28 25 24 24 24 25 27 29 31 31 31 30 30 29 30 30 29 27 25 23 22 21 21 22 22 21 20 19 19 19 20 20 19 19 17 16 14 13 13 12 12 12 13 14 16 17 18 18 18 17 15 14 15 15 14 13 12 13 15 18 19 20
18 21 25 29 31 32 34 35 34 32 31 31 32 33 34 34 34 35 36 36 33 31 31 30 30 29 29 27 25 25 26 29 31 32 33 32 31 30 31 30 29 27 24 22 21 21 21 21 20 19 19 19 20 22 22 23 22 21 18 17 15 14 13 13 13 13 15 16 18 19 19 17 16 14 14 14 14 12 11 11 13 15 16 17 18
24 25 26 29 31 32 33 34 33 31 30 30 30 31 33 35 36 36 36 37 37 37 35 34 34 34 32 30 28 26 25 29 33 33 32 32 31 30 30 31 31 29 25 23 23 22 21 20 19 19 19 20 22 23 24 24 24 23 21 19 17 16 15 14 14 14 14 16 17 17 17 16 15 15 15 15 14 11 10 11 13 14 15 15 17
29 30 29 29 31 32 32 32 30 29 29 28 27 25 26 28 29 30 30 31 32 34 34 33 34 34 32 31 30 29 28 29 31 30 30 31 31 29 28 29 31 29 26 24 24 23 22 20 19 19 20 21 22 24 24 24 24 23 23 21 19 17 16 15 14 13 14 15 15 16 16 16 16 17 17 17 15 11 11 11 12 13 13 14 17
27 28 29 30 31 33 33 31 29 28 27 27 27 26 23 22 22 24 26 27 27 28 29 29 29 30 30 29 28 27 27 26 25 24 26 28 29 29 27 27 29 29 26 25 25 25 23 22 20 20 20 21 22 23 23 23 23 23 23 21 19 17 17 16 14 13 14 14 14 14 16 17 18 19 19 19 16 12 12 12 11 11 11 13 16
24 25 28 31 33 33 32 31 30 28 25 25 26 26 24 21 18 18 19 21 23 25 26 26 25 26 27 26 24 23 23 23 22 21 20 21 24 26 25 26 27 27 26 26 27 27 26 25 24 23 22 23 23 23 22 22 23 23 22 20 18 17 16 15 14 14 14 14 13 14 15 17 18 19 20 19 16 14 13 12 10 9 10 12 15
27 27 28 31 32 30 29 30 29 28 28 27 27 27 26 24 21 19 16 16 19 22 24 25 24 23 23 22 21 20 18 18 19 19 17 16 18 21 23 24 25 25 25 27 27 27 27 27 27 26 26 25 24 23 23 23 23 22 20 19 17 16 16 15 14 15 15 14 14 15 16 16 17 18 18 17 15 14 13 12 9 9 10 12 15
28 30 30 31 31 30 30 30 30 29 30 30 29 29 28 27 25 23 20 18 18 20 22 22 21 20 19 19 19 18 17 16 16 17 16 14 15 19 22 24 23 23 24 26 27 27 28 29 29 30 29 28 27 25 25 24 23 22 21 19 18 17 16 15 15 15 14 14 15 16 16 16 16 17 16 14 13 13 13 10 9 9 10 12 15
27 30 33 34 33 31 31 31 31 30 29 28 28 28 28 27 26 26 26 25 23 23 22 21 19 18 18 18 18 17 17 16 16 16 15 14 15 18 21 23 22 22 23 24 26 27 29 30 31 32 32 31 29 28 27 26 25 24 23 21 19 18 17 17 16 15 15 15 15 16 16 16 17 17 15 13 12 13 12 10 9 10 11 12 15
26 28 30 30 30 29 29 29 29 29 29 29 29 29 28 27 26 25 25 24 23 22 21 20 20 19 18 17 17 16 16 16 16 15 14 14 16 19 21 22 22 23 24 26 26 27 28 29 31 32 31 31 30 30 29 29 28 27 25 23 21 20 20 19 18 18 17 16 16 16 16 16 17 17 15 14 13 13 12 10 9 10 10 12 15
26 27 27 25 25 27 27 26 27 28 29 29 29 27 25 24 24 24 23 23 23 21 19 18 18 19 19 18 18 17 17 16 15 15 16 16 18 20 21 21 22 24 26 27 27 28 29 30 31 31 30 30 30 29 29 29 29 28 27 25 23 22 22 22 21 20 19 18 17 16 15 16 18 17 16 16 15 13 12 10 9 10 10 11 13
25 27 27 26 25 26 25 24 24 25 25 25 24 24 22 22 22 22 22 22 22 21 19 18 18 19 20 21 21 19 18 17 17 19 20 19 20 21 22 22 23 24 25 26 27 28 29 30 30 31 30 29 29 28 28 29 29 29 27 26 24 24 24 23 22 21 21 20 19 17 17 17 17 17 18 18 16 14 12 11 10 10 10 10 12
21 23 24 24 24 24 24 24 23 23 22 22 21 22 21 21 21 21 21 21 20 19 18 18 18 19 20 21 20 19 19 20 21 22 21 21 21 22 22 23 25 25 25 25 25 26 27 28 29 30 29 29 29 28 28 27 27 27 27 26 25 25 24 23 22 21 21 20 19 18 18 18 17 17 19 19 17 15 13 12 11 10 10 11 12
20 21 22 22 22 22 23 23 22 22 22 22 21 21 21 21 21 21 21 20 19 19 18 17 17 19 20 20 21 22 23 23 23 23 22 22 22 23 24 25 26 26 26 25 25 25 25 26 27 28 28 28 28 27 25 24 23 22 22 22 22 22 21 20 20 20 20 19 18 17 17 17 16 17 19 19 17 16 13 12 11 10 10 12 13
21 22 22 21 21 21 21 21 21 22 22 22 21 21 22 21 21 20 20 19 19 18 18 17 17 18 19 20 21 23 24 23 23 23 23 23 24 24 25 26 26 26 26 26 25 25 24 23 24 24 25 25 24 23 22 21 19 19 19 19 19 19 18 18 18 18 18 17 15 15 15 15 15 17 18 17 16 15 13 12 11 11 11 12 13
21 22 23 21 20 20 20 20 20 20 20 20 20 20 20 20 19 19 19 18 17 17 16 16 17 18 18 20 22 23 22 22 22 23 24 24 24 25 25 25 25 25 26 26 26 26 25 23 22 22 22 22 21 20 20 20 20 19 19 18 17 17 16 15 15 15 15 15 14 15 15 15 15 16 17 16 15 15 14 12 11 11 11 13 14
18 20 21 20 19 19 19 19 18 18 18 18 18 17 17 17 17 17 17 17 16 16 17 17 17 18 18 20 21 22 22 21 22 23 24 24 25 25 25 24 24 24 25 26 26 26 26 24 23 22 21 20 19 19 20 20 20 20 19 18 16 14 14 13 13 12 12 12 12 13 14 15 16 17 17 16 16 16 15 14 13 13 13 14 16
16 17 18 18 18 17 16 16 16 17 17 16 16 16 16 16 16 16 16 16 17 17 18 18 18 19 19 20 21 22 22 22 23 23 23 23 24 25 24 24 23 23 24 26 27 27 28 27 25 24 23 21 20 19 19 20 20 20 19 17 16 14 14 13 11 9 8 8 10 12 14 15 16 17 18 18 18 19 18 17 17 16 16 17 18
14 16 17 17 16 15 14 15 15 15 15 15 15 15 15 15 16 16 16 17 17 18 18 18 19 19 20 20 20 21 22 22 23 24 24 24 25 25 24 24 24 24 24 25 26 28 29 29 28 27 26 24 22 21 20 20 20 20 19 18 17 16 14 13 11 10 9 9 11 12 12 13 14 15 16 17 17 18 18 17 17 17 18 18 19
14 15 15 15 14 14 13 13 14 14 15 15 15 14 15 15 16 17 18 18 18 19 19 19 19 20 21 21 21 21 21 22 24 24 25 25 25 25 24 23 23 23 24 24 26 28 29 29 29 29 28 27 25 24 23 22 21 21 21 20 19 18 16 15 13 11 10 11 12 12 10 10 10 11 11 12 12 13 14 15 15 16 16 17 17
12 12 12 13 13 13 13 13 13 14 14 14 14 14 15 16 16 17 18 19 19 19 20 20 21 22 22 22 21 21 21 22 23 24 24 24 23 22 22 22 22 23 23 24 25 26 27 28 29 29 28 28 27 27 26 25 24 23 23 22 21 20 19 17 16 13 11 11 13 13 12 12 11 11 10 10 11 12 14 14 14 13 13 13 14
9 9 10 11 12 12 13 13 14 14 14 15 15 15 15 16 16 17 18 19 19 20 20 21 21 22 22 21 21 21 20 21 22 23 23 23 22 21 21 22 22 22 23 23 24 25 25 25 26 26 26 26 26 27 27 27 26 26 26 25 25 23 22 20 17 15 12 12 13 14 15 14 13 12 12 12 12 13 14 13 13 12 12 13 13
9 9 11 11 11 11 12 13 14 15 16 16 16 15 15 16 16 17 18 18 19 20 21 20 20 21 20 20 20 19 19 20 21 22 23 23 22 22 22 22 22 23 23 23 23 23 22 22 21 21 21 21 21 22 23 24 25 26 26 26 26 25 22 20 18 16 14 15 16 16 16 15 14 13 13 13 14 15 15 14 13 13 14 15 15
10 10 11 10 10 11 12 13 14 15 15 16 16 15 15 15 16 16 17 17 18 19 19 19 19 19 19 18 18 18 18 19 21 22 23 23 22 21 21 22 22 22 22 21 20 19 18 18 17 17 17 17 17 18 19 20 21 22 23 24 24 22 20 19 18 17 16 16 17 17 17 16 14 14 15 15 15 16 16 15 15 15 16 16 17
10 11 11 11 10 11 11 13 14 14 14 14 15 15 14 14 15 15 16 16 17 18 18 18 18 19 18 18 18 18 19 20 20 21 22 21 20 20 19 19 19 20 19 18 17 16 16 15 15 15 15 15 15 15 16 16 17 18 18 18 18 18 18 18 18 18 17 17 16 16 16 15 15 16 16 15 15 15 16 16 16 16 16 17 17
Wind_Direction
190 191 192 193 193 194 194 192 192 194 195 197 199 200 201 201 201 202 204 205 206 205 206 209 212 214 215 216 216 215 214 212 211 211 208 206 202 199 193 189 189 185 181 180 178 177 174 166 161 161 162 159 151 150 145 139 136 124 116 120 112 106 118 120 117 126 113 74 54 42 30 27 32 33 33 27 20 15 14 15 13 11 9 7 9
190 191 191 192 194 193 192 191 191 193 195 197 199 200 201 201 200 201 203 205 207 207 208 208 210 214 215 215 215 214 215 213 211 209 206 203 199 195 193 189 188 185 182 179 175 173 172 168 164 164 167 164 156 154 152 146 145 134 122 119 111 102 104 112 116 117 105 78 58 50 49 51 51 43 29 19 16 14 14 15 14 12 11 8 8
191 191 190 192 193 192 191 190 190 192 195 196 198 199 200 201 201 202 203 205 207 208 210 209 210 212 213 213 213 213 213 213 210 207 206 204 198 194 193 191 189 187 183 178 174 172 170 169 168 167 168 166 160 157 157 154 153 145 132 120 107 100 97 108 116 112 101 79 54 52 61 61 49 35 25 19 16 13 12 13 12 11 10 8 6
190 189 190 191 192 191 190 189 189 192 194 196 197 198 200 201 200 201 203 204 205 207 209 210 211 212 211 211 210 211 212 210 208 206 206 205 200 195 192 192 193 191 185 179 175 174 174 172 171 171 171 167 161 161 161 159 159 153 139 124 110 105 103 107 109 105 98 81 59 55 56 51 39 27 21 18 16 15 12 11 10 9 9 8 5
188 188 189 189 190 190 189 189 190 191 194 195 197 197 198 199 198 199 201 203 204 205 206 208 210 211 211 210 211 211 212 209 206 204 203 203 201 197 194 193 195 192 187 182 179 179 180 178 174 176 178 172 166 166 168 164 162 159 146 129 118 115 113 106 99 93 85 71 63 60 48 41 36 26 17 13 11 12 11 11 10 8 7 8 8
188 187 188 187 188 189 189 190 190 191 192 194 195 196 196 197 196 197 200 203 204 204 205 207 210 211 211 212 212 211 210 208 206 204 202 201 201 199 196 195 196 193 187 184 184 185 185 183 180 182 186 182 175 173 173 171 169 161 146 133 125 122 116 106 96 87 76 64 60 54 41 34 29 24 18 11 6 4 4 6 10 9 6 6 8
187 187 187 187 187 189 190 191 191 191 191 192 193 195 195 195 196 197 201 204 203 203 205 206 209 210 212 212 211 210 208 206 206 204 202 201 201 199 197 197 197 194 190 189 190 193 193 191 187 185 188 189 185 183 182 179 171 158 146 137 132 127 118 108 99 86 72 64 57 45 34 26 19 16 15 13 9 6 360 356 360 5 5 4 6
186 186 187 188 188 190 191 191 191 190 190 190 191 193 194 195 196 198 200 202 204 204 205 205 207 209 211 211 209 208 207 205 204 204 202 202 202 200 198 198 196 192 190 192 194 197 197 194 190 186 188 192 194 194 192 186 172 158 150 144 140 132 122 111 100 86 71 63 59 42 29 22 16 12 11 9 5 2 359 352 350 356 359 2 7
185 186 187 189 190 190 190 190 190 189 189 188 189 192 194 194 195 196 198 201 203 204 205 206 206 207 208 208 208 207 206 205 205 204 203 202 201 199 198 198 195 191 189 191 194 195 194 192 189 188 192 196 198 195 193 189 180 166 157 153 148 137 125 113 101 90 75 68 62 42 25 18 12 7 5 3 357 355 358 356 353 354 354 356 5
186 187 188 190 191 190 189 188 187 187 187 187 187 190 194 193 193 193 196 199 201 203 203 204 206 206 205 205 206 206 206 206 206 206 205 203 200 198 198 197 194 193 193 191 191 192 192 191 190 193 199 204 198 186 179 176 177 172 165 159 152 141 130 118 107 97 84 78 64 37 19 12 8 3 360 1 0 359 360 358 353 353 352 351 359
187 189 190 190 189 188 187 186 185 185 186 185 186 189 192 192 190 190 192 196 200 201 202 202 204 206 205 204 205 206 205 206 206 206 206 204 201 199 198 196 196 198 198 195 192 191 190 190 193 197 204 202 188 176 170 169 172 176 173 166 156 145 137 128 120 109 96 88 66 35 12 5 7 8 5 2 2 3 2 359 353 350 350 346 343
189 191 191 189 188 187 185 184 183 183 184 184 185 188 190 190 188 188 191 195 198 200 199 200 203 204 204 204 205 206 206 205 206 205 204 204 203 202 199 197 198 199 199 199 198 194 190 191 194 198 202 195 181 173 172 171 171 176 178 176 169 159 147 136 125 112 102 93 67 40 16 6 9 12 8 360 359 5 6 3 358 351 348 344 333
190 191 190 188 187 186 183 182 181 182 182 183 184 186 187 188 187 188 191 196 198 196 196 199 203 203 203 204 205 206 206 205 205 204 203 204 204 203 201 200 201 200 200 202 202 196 193 194 194 191 190 188 183 181 182 175 167 167 177 183 183 181 169 147 126 112 110 96 57 36 20 9 10 13 9 0 358 3 4 0 360 354 349 346 339
190 190 189 187 186 184 182 180 180 180 181 182 183 185 187 189 190 191 192 194 194 192 194 199 202 203 204 205 206 206 206 205 204 203 203 204 204 202 202 203 205 205 203 203 202 200 200 201 198 192 187 189 192 195 192 180 167 161 174 185 191 194 179 159 134 121 125 103 41 29 24 15 15 17 14 7 3 4 1 355 357 354 350 349 347
190 190 188 187 184 182 182 181 180 179 180 182 183 185 188 190 192 192 192 192 192 192 195 199 200 202 206 206 205 206 205 204 203 202 203 204 203 202 204 206 207 207 205 205 205 205 207 208 205 200 195 194 198 199 194 182 171 161 171 190 204 207 192 180 162 146 141 114 31 26 27 21 23 24 18 12 9 7 2 356 355 352 348 351 353
190 190 189 187 184 182 182 182 181 178 179 181 184 187 190 192 191 192 192 191 191 192 195 197 199 202 205 205 205 205 205 203 201 200 202 204 202 202 205 207 207 206 206 207 208 208 211 214 210 207 205 201 198 198 196 187 182 185 190 204 218 216 205 201 195 177 163 133 23 26 27 21 25 25 17 13 10 8 3 359 358 352 347 348 349
192 192 191 188 185 183 182 182 180 178 178 181 185 189 192 193 193 193 190 187 188 191 193 195 199 202 203 203 203 203 203 202 200 199 200 202 200 201 205 207 206 206 207 209 209 209 214 218 215 214 214 211 204 201 202 202 202 213 224 225 225 218 210 208 201 190 194 204 13 22 19 16 26 25 15 11 9 5 1 358 356 352 346 345 338
194 194 193 189 185 184 183 182 180 177 178 183 189 192 194 195 196 194 189 186 190 193 192 193 197 201 203 203 202 202 202 200 198 199 201 201 199 201 205 206 205 206 207 208 210 213 217 220 221 221 219 216 212 209 210 213 215 225 244 243 227 217 213 211 202 199 208 216 228 7 0 5 26 25 10 8 7 3 360 356 354 351 346 341 330
197 196 194 190 186 184 183 183 181 177 180 189 195 196 196 196 196 191 187 187 190 190 189 191 195 199 202 203 202 203 203 199 197 199 200 200 201 203 205 204 204 206 207 208 210 214 218 220 224 228 226 220 217 217 217 219 221 233 249 243 227 216 210 204 197 196 202 207 213 288 329 357 29 23 4 3 5 3 0 356 353 352 347 341 337
199 196 193 189 185 183 181 181 179 178 183 193 198 199 198 196 190 183 183 187 190 190 191 193 194 196 198 201 202 203 203 199 197 199 200 201 203 204 204 204 205 207 208 208 211 214 217 221 226 232 230 224 220 221 221 222 227 236 245 240 228 215 202 195 193 194 198 204 223 276 306 314 354 16 7 0 0 0 360 356 353 353 349 344 344
197 193 189 186 183 181 178 178 180 184 189 193 195 195 195 193 185 182 184 187 189 190 192 191 189 191 196 199 201 202 204 202 199 199 200 202 204 205 205 205 207 208 208 210 214 216 219 224 228 228 224 219 220 222 223 225 230 236 244 248 236 218 206 201 201 204 209 222 244 271 291 296 311 347 4 2 0 358 357 355 352 351 351 348 346
192 188 184 181 179 178 177 178 183 189 193 193 191 191 191 189 185 184 185 184 183 185 186 185 186 190 196 199 201 202 204 205 202 200 201 203 205 206 207 208 210 209 208 210 215 217 221 225 224 217 211 213 218 222 224 229 232 236 245 251 237 224 217 212 213 218 227 240 257 269 282 293 301 313 331 347 353 351 350 350 348 347 348 349 348
189 184 181 178 177 176 177 179 183 188 191 191 189 187 185 184 183 183 183 180 178 179 182 183 184 187 191 196 200 202 204 205 205 204 203 203 204 207 209 212 212 211 211 214 218 219 220 221 216 210 211 216 220 223 226 231 235 237 244 244 233 226 226 223 222 228 239 252 261 267 276 288 295 300 308 319 327 332 337 341 342 342 344 347 349
186 182 179 176 173 173 175 177 182 186 186 185 185 182 179 177 177 179 181 179 176 177 183 185 185 184 186 190 196 200 202 203 205 207 207 205 205 208 211 214 214 213 216 221 225 223 220 218 215 216 221 223 223 226 231 235 238 239 239 236 231 229 231 232 233 238 247 255 263 268 274 281 289 296 301 304 306 313 325 332 334 338 342 344 346
181 177 172 168 165 165 168 173 180 184 183 184 186 182 173 168 170 176 180 178 176 177 183 187 187 184 184 187 193 198 201 202 203 206 208 209 208 209 212 215 216 216 219 224 228 227 222 220 220 223 226 226 227 229 232 236 238 239 235 232 234 236 236 237 241 247 252 257 265 271 273 278 290 298 298 295 294 301 315 324 327 334 339 342 344
174 167 161 159 160 162 165 170 177 179 179 182 185 180 172 170 172 175 177 178 179 181 183 186 186 183 185 189 192 195 199 201 203 205 207 209 211 211 213 215 217 219 223 228 230 228 224 223 224 225 225 226 230 233 234 236 238 239 236 233 236 240 241 242 245 252 259 263 268 273 276 283 293 296 291 288 292 299 309 315 321 333 339 342 342
160 154 153 154 156 161 166 169 173 174 174 176 177 175 175 176 175 175 177 179 180 181 182 184 183 183 187 191 192 195 199 201 203 206 207 209 211 213 214 216 216 219 224 228 228 227 225 225 226 227 226 228 232 236 237 237 238 239 238 236 238 243 245 246 251 257 263 266 270 276 281 288 292 290 285 287 291 297 303 306 315 330 339 342 342
149 148 150 152 155 162 166 169 171 172 173 175 175 176 178 179 180 183 185 185 183 182 183 184 186 189 191 191 190 193 199 203 207 209 210 211 212 212 214 215 215 217 221 224 222 222 224 225 224 224 226 228 231 233 235 236 237 238 238 235 239 246 249 252 256 257 260 267 274 279 283 286 284 281 281 285 288 290 293 298 309 325 337 340 340
158 155 157 157 159 162 165 168 171 171 172 175 178 180 182 184 186 190 192 192 192 190 188 188 192 196 196 194 192 193 198 208 215 217 215 215 215 214 215 215 214 216 221 222 218 216 219 222 222 222 223 226 229 230 233 235 234 234 234 234 239 247 253 258 261 259 263 272 279 281 280 278 276 276 278 282 285 283 282 290 304 321 334 338 338
159 159 160 160 161 161 163 167 170 170 171 173 174 177 183 189 192 192 193 196 198 198 197 199 201 202 200 201 205 208 212 220 225 224 221 220 219 219 220 219 217 217 220 219 215 215 218 220 221 223 223 225 227 229 231 232 231 228 228 230 238 248 258 262 261 259 266 277 281 281 278 275 274 275 276 280 281 275 272 283 300 316 329 335 335
158 158 158 157 159 161 161 164 168 170 172 172 171 172 177 185 194 198 198 199 200 201 203 206 207 206 206 209 214 219 223 228 231 231 229 226 223 223 224 222 219 219 221 219 213 213 217 219 221 223 224 225 228 229 229 228 226 223 224 230 240 251 258 259 255 257 269 281 287 285 280 277 276 275 276 280 278 269 267 280 296 310 322 331 331
156 154 155 157 160 161 161 163 166 167 167 169 171 171 170 172 181 192 200 204 204 204 206 208 209 210 212 215 218 222 226 229 233 236 236 231 226 225 224 220 218 221 224 221 216 215 218 220 221 223 223 224 226 226 225 223 222 223 227 234 243 252 256 256 256 263 272 281 288 286 282 280 278 277 280 281 273 263 266 280 292 301 313 326 328
160 156 156 156 157 159 161 163 164 166 167 170 172 174 173 174 175 177 184 195 203 207 209 211 212 211 212 216 222 226 229 232 234 236 235 231 226 224 221 219 220 224 225 219 215 217 222 223 225 225 225 225 225 224 223 223 224 227 233 239 247 255 259 259 263 267 270 276 283 285 283 281 278 278 280 276 261 255 266 279 286 294 307 321 325
162 160 160 158 158 161 164 165 168 171 173 175 177 178 181 183 180 174 170 174 187 201 209 212 213 213 212 215 221 225 228 232 235 235 233 229 223 221 220 220 222 225 226 222 219 222 225 226 227 228 228 228 227 226 226 226 228 232 237 242 249 257 262 264 265 265 266 272 281 283 281 277 272 272 273 264 249 251 265 273 277 289 306 318 321
164 165 166 166 166 167 169 171 172 173 175 177 179 181 184 186 184 180 178 178 182 191 198 202 206 208 209 211 216 222 227 229 231 233 232 227 221 218 216 215 214 215 220 222 223 226 228 229 230 231 231 231 231 230 231 232 233 236 240 244 250 258 263 266 266 264 265 272 280 285 282 274 269 268 264 250 240 249 262 266 271 287 305 315 318
165 165 166 167 168 169 171 173 173 174 176 179 183 186 187 187 185 185 186 186 187 190 192 194 196 200 205 208 210 218 226 231 232 233 232 229 225 219 213 211 212 215 219 223 226 228 231 234 235 235 235 234 234 234 235 236 238 241 243 246 250 256 262 266 267 268 271 275 281 287 283 273 269 266 253 237 238 251 259 263 272 289 306 314 316
165 165 165 167 168 169 171 173 175 177 180 182 184 185 185 184 185 185 186 189 192 193 192 192 191 193 199 204 206 211 220 227 231 232 230 228 228 225 220 219 221 222 224 227 229 231 233 236 237 237 237 237 237 238 239 240 241 243 245 246 249 254 261 268 270 271 273 275 279 285 284 274 269 263 246 235 241 253 258 262 274 292 305 309 313
168 168 169 171 171 170 170 173 176 179 180 181 182 182 181 182 185 185 186 190 193 193 191 192 192 193 198 202 203 205 208 213 220 226 226 224 224 223 224 226 227 228 230 233 234 234 236 238 238 238 238 240 241 241 242 243 244 245 244 245 249 255 262 267 269 269 271 272 275 282 285 279 269 257 243 239 246 254 258 264 276 288 296 301 310
168 169 170 172 172 171 172 174 176 178 178 178 180 182 181 181 183 185 187 190 191 191 191 192 193 197 200 201 200 199 200 206 215 221 223 224 226 226 226 228 229 231 233 236 238 239 240 241 241 240 240 243 244 245 246 246 247 248 247 247 251 256 261 265 266 267 269 271 275 281 284 278 266 252 241 241 249 257 259 265 275 282 286 295 306
167 167 170 171 170 171 174 175 175 176 178 179 181 183 184 185 186 187 188 188 189 191 192 192 195 201 204 204 204 204 203 206 212 218 222 225 228 227 227 227 229 232 235 238 241 243 244 245 244 243 243 245 246 246 246 247 248 248 248 248 252 258 262 266 268 269 269 270 276 282 281 273 260 248 242 243 250 257 260 265 272 278 283 291 302
167 166 168 170 171 171 172 174 177 180 181 182 184 186 188 190 191 190 190 192 193 193 192 195 201 206 208 211 213 213 210 210 213 218 223 227 229 229 229 229 231 234 237 240 242 245 247 249 249 247 246 247 247 246 244 243 244 245 246 250 257 263 268 270 270 269 269 270 275 281 279 270 255 244 240 243 248 253 256 262 270 275 280 288 298
165 164 166 169 172 172 172 175 179 183 184 185 187 189 191 192 192 193 195 198 198 194 192 197 205 210 213 217 220 218 216 217 221 223 225 228 232 233 234 235 237 240 242 243 244 246 248 250 250 249 248 248 247 245 242 242 243 245 250 257 263 267 271 274 273 270 270 271 274 275 271 261 249 240 238 243 249 251 253 258 265 268 271 280 290
166 165 167 170 174 176 177 178 180 183 187 190 191 192 194 194 194 196 199 201 202 202 200 201 206 211 216 220 221 220 219 221 226 229 230 231 233 236 239 242 245 248 249 249 248 248 249 251 252 252 252 252 251 250 248 247 248 251 256 262 264 267 275 284 283 277 270 264 259 257 255 249 244 241 242 245 249 252 255 258 258 259 264 273 284
169 168 168 171 175 178 181 183 185 189 193 195 194 194 196 196 195 197 200 202 206 209 208 207 210 214 216 217 218 219 221 223 226 230 232 234 237 241 244 248 251 252 253 252 250 249 249 250 251 252 253 253 254 254 254 254 256 257 259 261 261 266 278 290 294 291 279 259 247 248 251 250 250 249 248 250 254 259 264 266 263 262 265 269 277
171 170 170 171 175 178 180 184 188 190 190 190 190 191 194 195 196 198 201 204 207 211 212 214 218 221 221 220 220 222 224 226 228 231 236 240 243 247 250 251 253 254 254 253 252 250 250 251 253 253 253 252 253 253 255 257 259 260 260 259 260 266 276 285 292 297 291 275 262 255 252 254 255 255 254 257 261 266 272 272 270 268 267 267 273
173 173 172 173 175 176 177 179 183 186 186 187 187 188 191 195 198 201 205 206 208 211 213 215 220 222 223 224 225 226 228 229 231 236 241 245 248 252 254 254 254 255 255 255 254 253 253 254 255 255 255 255 255 255 255 257 259 260 260 259 261 267 273 277 281 286 281 266 256 251 250 254 257 255 256 262 269 274 276 273 269 268 267 268 274
174 174 176 178 177 176 177 179 182 184 186 190 193 196 199 200 201 204 208 209 210 211 212 214 218 222 223 223 226 228 230 233 236 241 246 250 252 253 255 256 256 257 258 257 257 256 257 257 258 258 258 258 258 257 257 256 256 257 258 259 262 268 270 270 272 276 269 253 246 249 256 261 259 256 258 268 277 280 278 270 264 264 267 271 276
180 179 184 186 183 181 181 182 183 185 189 194 199 203 206 206 205 208 211 211 210 211 213 215 220 222 221 222 226 230 234 238 242 246 250 253 255 256 257 257 259 260 260 261 261 260 261 261 262 262 262 261 260 259 259 257 257 257 257 259 262 265 266 264 264 265 260 252 251 255 259 261 261 259 261 267 275 279 274 265 259 262 268 271 275
192 191 189 190 192 193 192 190 190 191 192 194 197 200 204 207 207 209 212 214 213 214 215 217 222 224 225 226 230 234 237 242 247 251 253 256 258 259 259 259 260 261 262 263 263 263 264 264 264 265 264 263 261 259 258 257 256 256 257 258 259 260 259 256 254 253 253 255 258 260 261 263 264 262 263 268 272 270 265 259 258 262 266 268 271
199 197 194 193 197 200 200 200 198 196 194 193 193 196 200 205 208 210 212 215 216 218 219 220 223 227 229 232 235 237 240 245 250 253 256 259 259 259 259 259 259 260 262 263 264 265 264 264 264 264 264 263 262 260 257 255 254 253 252 252 252 251 248 245 244 247 250 253 256 259 262 263 263 262 265 269 267 260 255 254 256 260 263 267 270
198 195 194 195 197 198 199 200 201 200 198 198 199 200 203 207 211 213 215 218 221 224 225 225 227 231 235 239 241 243 245 249 253 257 259 259 258 257 257 257 258 259 261 262 263 263 262 260 260 262 264 265 264 261 258 256 254 251 249 246 242 239 237 237 240 244 247 248 251 256 260 261 259 260 264 265 258 250 249 252 256 260 264 266 268